Location: Centerville
(32.8776°N, 96.6203°W)
Time: 05:31:52
(UTC+00:00)

SPOT 1/Viking Rocket - Pass Details

Date: 17 June 2021
Orbit: 778 x 793 km, 98.4° (Epoch: 29 July)

Event Time Altitude Azimuth Distance (km) Brightness Sun altitude
Exits shadow 03:47:30 43° 180° (S) 1,077 3.9 -22.0°
Maximum altitude 03:49:11 78° 257° (WSW) 799 3.5 -22.3°
Drops below altitude 10° 03:54:20 10° 344° (NNW) 2,333 6.9 -22.9°
Sets 03:56:40 0° 346° (NNW) 3,264 7.9 -23.2°
